Погода в Голине

Польша     52°14′43″N   18°05′41″E
темп.,
°C
ветер,
м/с
пор.,
м/с
влажн.,
%
обл.,
%
осадки,
мм/ч
давл.,
гПа
погр.,
м
26 июля, пн
пн2623:00+19всв22795 0.0 101218
02:00+18вюв48835 0.0 1012158
05:00+17в388611 0.0 1011175
08:00+21вюв3473100 0.0 1011381
11:00+25вюв2257100 0.0 1011762
14:00+27юз1151100 0.0 10111356
17:00+24з3366100 0.2 1011295
20:00+24ссз01676 0.3 101011
27 июля, вт
вт2723:00+20всв117821 0.7 101111
02:00+19всв0083100 0.7 101111
05:00+19ююз4887100 0.1 1011149
08:00+20з4886100 1.3 1012298
11:00+20зюз2487100 1.8 1013187
14:00+26юз345563 1.8 10131266
17:00+27ююз2353100 0.0 101257
20:00+23зсз3660100 0.0 1012125
28 июля, ср
ср2823:00+20зюз2268100 0.0 101321
02:00+19ююз227358 0.0 101319
05:00+18ююз33845 0.1 101236
08:00+22юз4772100 0.1 1013299
11:00+26зюз345637 0.0 1013923
14:00+28з454196 0.0 10121899
17:00+27зсз664575 0.0 10121222
20:00+20зсз71071100 0.3 1012391
29 июля, чт
чт2923:00+17зюз388410 0.6 1014280
02:00+15зюз37955 0.6 1014164
05:00+15юз38960 0.0 1013189
08:00+19зюз58780 0.0 1013429
11:00+24зюз695252 0.0 10131838
14:00+27з710405 0.0 10122460
17:00+27з69382 0.0 10112489
20:00+23зюз335411 0.0 101136
30 июля, пт
пт3023:00+19св22630 0.0 101125
02:00+18вюв346299 0.0 101070
05:00+19ююв3654100 0.0 1008136
08:00+20юз51285100 2.1 1008528
11:00+24юз687084 0.8 10061043
14:00+25з81162100 1.1 10051556
17:00+25з81148100 0.2 10051223
20:00+21зсз5114560 0.2 1006276